RH
8 8 7 7 7 8 8 8 8 7 7 7 7 8 10 11 11 12 11 8 7 4 3 3 4 4 4 4 4 4 5 5 5 7 8 9 8 8 8 9 10 10 10 10 10 10 10
7 8 9 9 9 9 9 9 9 9 9 10 11 12 14 13 11 9 8 6 4 4 4 4 4 5 5 5 5 5 5 6 7 7 8 9 9 9 10 11 11 11 10 10 10 11 10
8 9 10 11 12 13 13 13 13 13 13 13 14 15 14 10 7 6 5 5 5 5 5 5 5 5 5 6 6 6 6 6 7 7 8 8 9 9 9 11 11 11 11 11 10 10 11
9 9 10 12 13 14 15 15 15 15 15 15 15 14 10 7 5 5 5 5 6 5 5 5 6 6 6 7 6 7 7 7 8 8 8 9 9 10 11 11 10 9 9 10 11 10 12
10 10 11 12 14 15 16 17 16 16 15 15 13 10 7 5 5 6 6 7 6 6 6 6 7 8 7 8 8 8 8 8 8 8 9 9 10 11 11 9 10 10 11 11 12 12 12
12 13 13 13 15 16 17 17 16 15 15 14 11 8 5 5 6 6 7 8 8 7 6 7 7 8 8 8 8 8 9 8 9 9 10 10 12 12 12 12 13 13 12 12 12 14 14
13 14 15 15 15 16 16 17 16 14 14 12 9 6 6 6 7 7 9 12 12 9 7 8 8 8 8 9 9 9 9 9 10 11 12 12 12 13 13 14 15 15 15 14 14 15 16
13 14 15 15 15 16 16 16 16 13 13 11 8 6 6 6 7 8 9 12 12 11 10 10 9 9 9 9 9 9 10 11 11 12 12 12 13 14 14 15 16 17 17 16 14 17 17
16 17 16 15 15 15 16 16 16 14 12 13 9 6 6 7 8 11 11 10 11 12 12 10 10 10 10 9 9 10 10 11 12 12 12 13 13 14 15 16 18 18 18 17 16 16 16
20 20 20 19 18 17 15 15 16 15 12 12 11 7 7 7 10 12 14 13 11 11 15 11 11 11 11 12 11 10 11 11 12 12 13 14 14 15 15 16 18 20 20 17 17 18 18
24 23 22 22 20 18 19 15 15 16 14 11 10 8 7 7 9 14 11 11 13 16 25 11 11 11 12 12 11 11 12 12 12 13 14 14 14 15 16 17 18 20 21 19 19 21 22
18 22 25 24 23 22 19 18 17 16 15 13 11 8 6 8 8 7 9 8 11 25 18 11 11 11 12 12 11 11 12 11 12 13 13 13 14 16 17 18 19 20 20 23 23 22 31
17 17 18 24 24 23 22 19 17 18 17 14 12 10 8 7 13 7 7 12 24 33 11 11 11 11 11 11 12 12 12 13 13 17 17 14 15 16 18 19 20 21 24 27 27 30 31
13 15 16 18 24 23 23 23 19 17 18 17 13 11 10 9 8 7 8 16 42 11 11 10 10 11 12 11 12 12 13 14 14 15 16 17 20 17 19 20 23 23 25 32 39 31 30
13 12 11 15 20 23 23 23 23 20 18 18 16 13 11 9 9 8 12 25 17 11 10 10 10 12 12 12 13 13 14 14 14 16 18 19 21 18 20 21 23 26 28 26 33 32 35
13 12 11 10 16 22 24 24 24 23 22 21 22 17 14 10 8 9 14 18 13 9 10 10 13 12 14 14 14 14 14 14 14 16 18 20 22 20 20 21 24 26 27 34 37 48 45
14 12 12 10 10 18 22 24 25 25 24 23 24 23 14 11 10 15 20 16 11 8 9 10 13 13 12 13 13 14 15 14 14 17 18 19 22 23 22 24 26 26 30 35 34 35 39
14 13 13 12 10 11 20 22 24 26 27 25 27 27 18 14 19 19 18 13 9 9 9 10 10 12 13 13 13 14 15 16 15 17 21 22 22 26 23 24 25 27 31 32 37 38 35
15 12 12 12 11 10 15 22 23 24 24 30 33 28 20 21 32 24 16 12 10 9 10 10 10 10 12 13 15 14 14 15 14 17 22 23 26 27 30 30 30 28 30 32 33 36 46
21 16 11 11 11 11 12 19 23 24 25 27 33 36 28 25 28 27 21 17 14 11 10 10 11 10 11 12 12 14 15 14 14 16 18 21 26 30 30 30 30 33 33 32 35 39 42
33 28 19 14 11 12 13 16 22 24 27 30 34 36 33 36 30 26 25 23 20 17 14 12 12 11 12 14 14 15 15 16 15 16 18 23 27 27 27 28 31 32 32 34 38 42 40
27 34 31 25 19 13 13 16 20 23 25 30 40 38 32 34 31 31 30 27 25 23 21 19 16 16 13 14 16 17 17 18 18 19 20 23 25 25 27 28 36 32 31 33 36 36 38
19 26 34 32 27 25 21 18 17 20 23 30 32 31 33 38 38 37 38 32 30 27 26 24 23 20 18 17 17 16 16 17 18 19 22 24 27 27 29 33 37 38 34 32 34 36 38
10 15 23 33 34 30 27 25 24 23 24 27 30 33 36 40 33 35 36 36 34 32 31 29 27 27 28 22 18 17 17 17 18 19 20 26 29 31 33 35 65 38 29 31 34 36 36
8 10 13 20 31 35 33 30 26 24 24 28 28 36 39 42 41 37 36 36 38 37 35 35 34 33 31 30 30 28 27 26 23 21 23 25 31 36 43 40 33 32 31 31 33 35 34
9 9 10 14 19 28 34 33 32 30 28 28 28 29 38 45 42 40 37 37 40 42 42 40 39 36 35 36 36 45 34 28 32 28 28 28 32 38 41 46 51 36 32 31 33 38 38
11 10 10 12 15 21 27 31 33 33 32 33 36 29 37 48 44 43 40 41 41 41 45 45 42 40 40 40 51 43 36 31 31 32 37 34 37 42 43 46 40 33 31 32 39 44 37
11 11 12 13 15 19 23 26 28 30 32 33 40 34 35 41 42 43 41 40 39 40 45 47 43 44 43 46 46 47 40 36 36 30 34 36 41 43 41 48 54 33 31 32 35 36 37
13 12 12 14 15 18 22 24 25 25 28 31 41 36 36 35 37 37 37 38 38 39 41 46 46 47 45 48 45 45 44 39 39 38 36 38 36 39 40 35 34 33 31 31 32 33 37